Location: Kutna Hora
(49.9500°N, 15.2670°E)
Time: 08:13:20
(UTC+02:00)

ISS - Pass Details

Date: 02 April 2019
Orbit: 408 x 410 km, 51.6° (Epoch: 26 April)

Event Time Altitude Azimuth Distance (km) Brightness Sun altitude
Rises 20:55:03 0° 287° (WNW) 2,340 1.9 -13.6°
Reaches altitude 10° 20:57:08 10° 286° (WNW) 1,476 0.4 -13.9°
Maximum altitude 21:00:27 75° 200° (SSW) 427 -3.8 -14.4°
Enters shadow 21:01:49 32° 121° (ESE) 725 -3.1 -14.6°
